Cordoba, Spain

11:20 AM CET on January 16, 2018 (GMT +0100)
Cordoba

Weather History for LEBA - August, 2013

Change the Weather History Date:

Saturday, August 17, 2013

  Actual Average Record
Temperature  
Mean Temperature 84 °F -  
Max Temperature 100 °F - - ()
Min Temperature 69 °F - - ()
Cooling Degree Days 20    
Growing Degree Days 34 (Base 50)    
Moisture  
Dew Point 50 °F    
Average Humidity 31    
Maximum Humidity 60    
Minimum Humidity 8    
Precipitation  
Precipitation 0.00 in 0.02 in - ()
Sea Level Pressure  
Sea Level Pressure 29.97 in    
Wind  
Wind Speed 3 mph ()    
Max Wind Speed 12 mph    
Max Gust Speed -    
Visibility 19.0 miles    
Events      
T = Trace of Precipitation, MM = Missing Value Source: Averaged Metar Reports

Daily Weather History Graph

Daily Weather History Graph

Search for Another Location

Airport or City:

Trip Planner

Search our weather history database for the weather conditions in past years. The results will help you decide how hot, cold, wet, or windy it might be!

Date:

Astronomy

Aug. 17, 2013 Rise Set
Actual Time 7:36 AM CEST 9:09 PM CEST
Civil Twilight 7:08 AM CEST 9:37 PM CEST
Nautical Twilight 6:35 AM CEST 10:10 PM CEST
Astronomical Twilight 5:59 AM CEST 10:46 PM CEST
Moon 6:10 PM CEST (8/17) 3:26 AM CEST (8/17)
Length of Visible Light 14h 28m
Length of Day
13h 33m
Waxing Gibbous, 82% of the Moon is Illuminated
Aug 17
Waxing Gibbous
Aug 21
Full
Aug 28
Last Quarter
Sep 5
New
Sep 12
First Quarter

Hourly Weather History & Observations

Time (CEST) Temp. Heat Index Dew Point Humidity Pressure Visibility Wind Dir Wind Speed Gust Speed Precip Events Conditions
2:00 AM 78 °F - 53 °F 31% 30.00 in - WSW 1.2 mph - -  
7:00 AM 71.6 °F - 55.4 °F 57% 29.98 in - Calm Calm - N/A   Clear
8:00 AM 70 °F - 55 °F 49% 30.00 in 19 mi Calm Calm - -   Scattered Clouds
8:00 AM 69.8 °F - 55.4 °F 60% 30.01 in - SSW 1.2 mph - N/A   Clear
9:00 AM 73.4 °F - 55.4 °F 53% 30.01 in - Calm Calm - N/A   Clear
10:00 AM 78.8 °F - 53.6 °F 42% 30.01 in - Calm Calm - N/A   Clear
11:00 AM 82.4 °F - 51.8 °F 35% 30.01 in - Calm Calm - N/A   Clear
12:00 PM 86.0 °F - 51.8 °F 31% 30.01 in - West 3.5 mph - N/A   Clear
1:00 PM 89.6 °F - 51.8 °F 27% 30.01 in - West 3.5 mph - N/A   Clear
2:00 PM 91.4 °F 89.1 °F 53.6 °F 28% 29.98 in - West 5.8 mph - N/A   Clear
3:00 PM 95.0 °F - 51.8 °F 23% 29.98 in - West 5.8 mph - N/A   Clear
4:00 PM 96.8 °F - 50.0 °F 20% 29.95 in - West 9.2 mph - N/A   Clear
5:00 PM 96.8 °F - 48.2 °F 19% 29.92 in - West 11.5 mph - N/A   Clear
6:00 PM 96.8 °F - 44.6 °F 17% 29.92 in - West 10.4 mph - N/A   Clear
7:00 PM 96.8 °F - 42.8 °F 16% 29.92 in - West 9.2 mph - N/A   Clear
8:00 PM 97 °F - 41 °F 8% 29.91 in 25 mi WSW 8.1 mph - -   Clear
8:00 PM 95.0 °F - 44.6 °F 18% 29.92 in - West 8.1 mph - N/A   Clear
9:00 PM 89.6 °F - 50.0 °F 26% 29.92 in - West 4.6 mph - N/A   Clear
10:00 PM 82.4 °F - 50.0 °F 32% 29.92 in - West 2.3 mph - N/A   Clear
11:00 PM 78.8 °F - 48.2 °F 34% 29.95 in - South 2.3 mph - N/A   Clear